Regional Weather Roundup
Issued by NWS

Home | Current Version | Previous Version | Graphics & Text | Print | Product List | Glossary On
Versions: 1 2 3 4 5 6 7 8 9 10 11 12 13 14 15 16 17 18 19 20 21 22 23 24 25 26 27 28 29 30 31 32 33 34 35 36 37 38 39 40 41 42 43 44 45 46 47 48 49 50
000
ASUS43 KOAX 061810
RWRNE

WEATHER ROUNDUP FOR NEBRASKA
NATIONAL WEATHER SERVICE OMAHA NE
1200 PM CST TUE DEC 06 2016

NOTES: SATELLITE DATA IS BEING USED TO AUGMENT CLOUD COVER ABOVE
       12000 FEET.
       "FAIR" INDICATES FEW OR NO CLOUDS BELOW 12,000 FEET WITH NO
       SIGNIFICANT WEATHER AND/OR OBSTRUCTIONS TO VISIBILITY.

  * THESE STATIONS DO NOT REPORT WEATHER SUCH AS RAIN...SNOW OR FOG.

NEZ001>004-019>022-054>056-061900-
NEBRASKA PANHANDLE

CITY           SKY/WX    TMP DP  RH WIND       PRES   REMARKS
SCOTTSBLUFF    SUNNY     24   5  44 NW9       30.00F WCI  14
6HR MIN TEMP:   2; 6HR MAX TEMP:  24;

ALLIANCE       SUNNY     22   5  48 W12       29.97F WCI  10
6HR MIN TEMP:  -1; 6HR MAX TEMP:  22;

CHADRON        SUNNY     20   6  55 NW16G23   30.04S WCI   6
6HR MIN TEMP:   9; 6HR MAX TEMP:  20;

KIMBALL        SUNNY     26   2  35 NW12      29.94F WCI  16
SIDNEY         SUNNY     28   0  29 NW12      29.97F WCI  18
6HR MIN TEMP:   0; 6HR MAX TEMP:  28;

$$

NEZ057>060-069>072-079>082-061900-
SOUTHWEST NEBRASKA

CITY           SKY/WX    TMP DP  RH WIND       PRES   REMARKS
NORTH PLATTE   SUNNY     32   7  35 W16       30.03F WCI  21
6HR MIN TEMP:  12; 6HR MAX TEMP:  32;

IMPERIAL       SUNNY     30   3  31 NW12      30.03F WCI  20
6HR MIN TEMP:   8; 6HR MAX TEMP:  30;

LEXINGTON      SUNNY     31  11  42 W13G22    30.04F WCI  22
MCCOOK         SUNNY     31   8  38 W14       30.07F WCI  21
6HR MIN TEMP:  15; 6HR MAX TEMP:  31;

OGALLALA       SUNNY     28   8  43 NW14      30.02F WCI  17
$$

NEZ005>010-023>029-035>040-094-061900-
NORTH CENTRAL NEBRASKA

CITY           SKY/WX    TMP DP  RH WIND       PRES   REMARKS
VALENTINE      SUNNY     22   3  44 NW16G29   30.00F WCI   8
6HR MIN TEMP:   9; 6HR MAX TEMP:  22;

AINSWORTH      SUNNY     23   5  46 W21G28    30.00F WCI   8
BROKEN BOW     SUNNY     28  10  46 N15       30.01F WCI  16
6HR MIN TEMP:  14; 6HR MAX TEMP:  28;

O`NEILL        SUNNY     27   8  44 NW25G33   29.99F WCI  12
ORD            SUNNY     28   5  37 NW23G29   30.01F WCI  14
6HR MIN TEMP:  15; 6HR MAX TEMP:  28;

THEDFORD       SUNNY     29   9  43 NW16      29.99F WCI  17
$$

NEZ041-046>049-061>064-073>077-083>087-061900-
SOUTH CENTRAL NEBRASKA

CITY           SKY/WX    TMP DP  RH WIND       PRES   REMARKS
GRAND ISLAND   SUNNY     31  10  41 NW20      30.04F WCI  19
6HR MIN TEMP:  17; 6HR MAX TEMP:  31;

AURORA         SUNNY     31  10  41 NW17G25   30.04F WCI  20
HASTINGS       SUNNY     32   9  38 NW17G24   30.05F WCI  21
6HR MIN TEMP:  19; 6HR MAX TEMP:  32;

HEBRON         SUNNY     33  11  40 N12       30.08F WCI  24
HOLDREGE       SUNNY     31   8  37 NW17G26   30.04F WCI  20
KEARNEY *      SUNNY     32   7  34 NW14      30.04F WCI  22
YORK           SUNNY     32  12  43 NW25      30.03F WCI  19
$$

NEZ011>018-030>034-042>045-061900-
NORTHEAST NEBRASKA

CITY           SKY/WX    TMP DP  RH WIND       PRES   REMARKS
NORFOLK        SUNNY     27   7  42 W25G32    29.98F WCI  12
6HR MIN TEMP:  18; 6HR MAX TEMP:  27;

ALBION         SUNNY     28   5  37 NW24G36   30.01F WCI  14
BLAIR          SUNNY     30  12  47 W18G26    30.00F WCI  18
FREMONT        SUNNY     31  11  42 W29       30.02S WCI  17
TEKAMAH        SUNNY     29  13  51 NW25G31   30.01F WCI  14
6HR MIN TEMP:  20; 6HR MAX TEMP:  30;

WAYNE          SUNNY     28  11  48 W25G33    29.98F WCI  13
$$

NEZ050>053-065>068-078-088>093-061900-
SOUTHEAST NEBRASKA

CITY           SKY/WX    TMP DP  RH WIND       PRES   REMARKS
LINCOLN        SUNNY     34  10  37 NW24G32   30.04F WCI  21
6HR MIN TEMP:  23; 6HR MAX TEMP:  34;

OMAHA EPPLEY   SUNNY     31  12  45 NW21G26   30.02F WCI  18
6HR MIN TEMP:  21; 6HR MAX TEMP:  31;

BEATRICE       SUNNY     34  14  42 NW14G21   30.06F WCI  25
FALLS CITY     SUNNY     34  13  41 NW18G24   30.06F WCI  23
6HR MIN TEMP:  27; 6HR MAX TEMP:  34;

NEBRASKA CITY  SUNNY     32   7  35 NW24      30.03F WCI  19
PLATTSMOUTH    SUNNY     32   7  35 NW22G29   30.01F WCI  19
$$

NEZ044-045-051>053-067-061900-
OMAHA AREA

CITY           SKY/WX    TMP DP  RH WIND       PRES   REMARKS
OMAHA EPPLEY   SUNNY     31  12  45 NW21G26   30.02F WCI  18
6HR MIN TEMP:  21; 6HR MAX TEMP:  31;

BLAIR          SUNNY     30  12  47 W18G26    30.00F WCI  18
FREMONT        SUNNY     31  11  42 W29       30.02S WCI  17
MILLARD        SUNNY     32  11  42 NW18G28   30.03F WCI  20
OFFUTT AFB     SUNNY     32  12  44 NW22G33   30.01F WCI  19
PLATTSMOUTH    SUNNY     32   7  35 NW22G29   30.01F WCI  19
WAHOO          FAIR      32  10  40 NW26G33   30.01F WCI  18
$$




USA.gov is the U.S. government's official web portal to all federal, state and local government web resources and services.